This is the latest recevied weather packets stored in our database for station/object KE8GJZ-2. If no packets are shown the sender has not sent any weather packets the latest 10 day(s).
| Time | Temp. | Humidity | Pressure | Rain* | Wind** | Luminosity | Snow |
|---|---|---|---|---|---|---|---|
| 1778101657 | 12.22° C | 45% | 1012.3 hPa | 0 mm | - | 405 W/m² | - |
| 1778101354 | 12.22° C | 43% | 1012.6 hPa | 0 mm | - | 513 W/m² | - |
| 1778101051 | 12.78° C | 44% | 1012.4 hPa | 0 mm | - | 434 W/m² | - |
| 1778100746 | 12.22° C | 42% | 1012.6 hPa | 0 mm | - | 330 W/m² | - |
| 1778100444 | 12.22° C | 44% | 1012.6 hPa | 0 mm | - | 369 W/m² | - |
| 1778100141 | 12.22° C | 48% | 1012.7 hPa | 0 mm | - | 362 W/m² | - |
| 1778099839 | 11.67° C | 44% | 1012.6 hPa | 0 mm | - | 320 W/m² | - |
| 1778099536 | 12.22° C | 46% | 1012.4 hPa | 0 mm | - | 262 W/m² | - |
| 1778099234 | 12.22° C | 44% | 1012.7 hPa | 0 mm | - | 271 W/m² | - |
| 1778098929 | 12.22° C | 45% | 1012.7 hPa | 0 mm | - | 324 W/m² | - |
| 1778098627 | 12.22° C | 45% | 1012.8 hPa | 0 mm | - | 276 W/m² | - |
| 1778098323 | 12.78° C | 44% | 1012.8 hPa | 0 mm | - | 380 W/m² | - |
| 1778098020 | 12.22° C | 45% | 1012.9 hPa | 0 mm | - | 365 W/m² | - |
| 1778097717 | 11.67° C | 44% | 1012.9 hPa | 0 mm | - | 304 W/m² | - |
| 1778097413 | 12.22° C | 44% | 1012.8 hPa | 0 mm | - | 453 W/m² | - |
| 1778097110 | 12.22° C | 43% | 1013 hPa | 0 mm | - | 596 W/m² | - |
| 1778096807 | 12.22° C | 43% | 1013.1 hPa | 0 mm | - | 564 W/m² | - |
| 1778096503 | 11.67° C | 43% | 1012.9 hPa | 0 mm | - | 745 W/m² | - |
| 1778096201 | 11.67° C | 48% | 1013 hPa | 0 mm | - | 197 W/m² | - |
| 1778095898 | 11.67° C | 47% | 1012.8 hPa | 0 mm | - | 609 W/m² | - |
| 1778095595 | 12.78° C | 43% | 1013.1 hPa | 0 mm | - | 425 W/m² | - |
| 1778095291 | 11.67° C | 46% | 1012.9 hPa | 0 mm | - | 565 W/m² | - |
| 1778094988 | 11.67° C | 42% | 1013.1 hPa | 0 mm | - | 424 W/m² | - |
| 1778094684 | 11.67° C | 42% | 1013.1 hPa | 0 mm | - | 677 W/m² | - |
| 1778094381 | 11.67° C | 46% | 1012.9 hPa | 0 mm | - | 296 W/m² | - |
* Rain latest hour (hover to see other rain measurements)
** Current wind speed in m/s (hover to see current wind gust speed)